Voltar ao catálogo

ERS 15

AtivoCiênciaPO
NORAD 2412·PAYLOAD·🇺🇸 United States

Lançado Aug 19, 1966 de Vandenberg Space Force Base

Loading…

Próximas Passagens (próximas 24 horas)

TLE

AtualizadoSource: Space-Track

Época: Sep 14, 2026, 01:27 UTC

1 02412U 66077C   26257.06076963  .00000002  00000-0  00000-0 0  9996
2 02412  90.3250 278.2758 0006123 340.8365  19.2255  8.59079858398092

Acompanhe ERS 15 em tempo real com AllMySat

Download on the App Store